| time (UTC) | temp F | wind direction | speed MPH | gust MPH | rain 1hr in | rain 24hr in | rain mn in | humidity % | barometer mb |
| 20260509022636 | 66 | 0.0 | 0.0 | 0.00 | 0.00 | 0.00 | 86 | 1015.7 | |
| 20260509021618 | 66 | 0.0 | 0.0 | 0.00 | 0.00 | 0.00 | 85 | 1015.6 | |
| 20260509020617 | 66 | 0.0 | 0.0 | 0.00 | 0.00 | 0.00 | 85 | 1016.0 | |
| 20260509015617 | 66 | 0.0 | 0.0 | 0.00 | 0.00 | 0.00 | 84 | 1016.0 | |
| 20260509014617 | 66 | 0.0 | 0.0 | 0.00 | 0.00 | 0.00 | 84 | 1016.1 | |
| 20260509013616 | 66 | 0.0 | 0.0 | 0.00 | 0.00 | 0.00 | 84 | 1015.9 | |
| 20260509012617 | 66 | 0.0 | 0.0 | 0.00 | 0.00 | 0.00 | 83 | 1015.6 | |
| 20260509011616 | 66 | 0.0 | 0.0 | 0.00 | 0.00 | 0.00 | 82 | 1015.3 | |
| 20260509010616 | 67 | 0.0 | 0.0 | 0.00 | 0.00 | 0.00 | 81 | 1014.8 | |
| 20260509005617 | 67 | 0.0 | 0.0 | 0.00 | 0.00 | 0.00 | 81 | 1014.9 | |
| 20260509004616 | 67 | 0.0 | 0.0 | 0.00 | 0.00 | 0.00 | 80 | 1015.1 | |
| 20260509003617 | 67 | 0.0 | 0.0 | 0.00 | 0.00 | 0.00 | 80 | 1015.0 | |
| 20260509002616 | 67 | 0.0 | 0.0 | 0.00 | 0.00 | 0.00 | 78 | 1015.0 | |
| 20260509001616 | 67 | 0.0 | 0.0 | 0.00 | 0.00 | 0.00 | 77 | 1015.0 | |
| 20260509000636 | 68 | 0.0 | 0.0 | 0.00 | 0.00 | 0.00 | 77 | 1015.0 | |
| 20260508235616 | 68 | 0.0 | 0.0 | 0.00 | 0.00 | 0.00 | 75 | 1014.8 | |
| 20260508234616 | 68 | 0.0 | 0.0 | 0.00 | 0.00 | 0.00 | 74 | 1014.5 | |
| 20260508233616 | 69 | 0.0 | 0.0 | 0.00 | 0.00 | 0.00 | 73 | 1014.5 | |
| 20260508232616 | 69 | 0.0 | 0.0 | 0.00 | 0.00 | 0.00 | 73 | 1014.3 | |
| 20260508231616 | 69 | 0.0 | 0.0 | 0.00 | 0.00 | 0.00 | 71 | 1014.3 | |
| 20260508230616 | 70 | 0.0 | 1.0 | 0.00 | 0.00 | 0.00 | 70 | 1013.9 | |
| 20260508225616 | 70 | 0.0 | 0.0 | 0.00 | 0.00 | 0.00 | 70 | 1013.9 | |
| 20260508224616 | 71 | 0.0 | 1.0 | 0.00 | 0.00 | 0.00 | 69 | 1014.0 | |
| 20260508223616 | 71 | 0.0 | 2.0 | 0.00 | 0.00 | 0.00 | 68 | 1014.1 | |
| 20260508222617 | 71 | 0.0 | 1.0 | 0.00 | 0.00 | 0.00 | 66 | 1014.2 | |
| 20260508221616 | 72 | 0.0 | 0.0 | 0.00 | 0.00 | 0.00 | 67 | 1014.1 | |
| 20260508220636 | 72 | 158 | 1.0 | 2.0 | 0.00 | 0.00 | 0.00 | 66 | 1013.9 |
| 20260508215616 | 72 | 135 | 1.0 | 1.0 | 0.00 | 0.00 | 0.00 | 65 | 1013.9 |
| 20260508214616 | 73 | 0.0 | 0.0 | 0.00 | 0.00 | 0.00 | 65 | 1014.1 | |
| 20260508213616 | 74 | 180 | 1.0 | 2.0 | 0.00 | 0.00 | 0.00 | 63 | 1014.1 |
| 20260508212617 | 75 | 180 | 1.0 | 3.0 | 0.00 | 0.00 | 0.00 | 64 | 1013.8 |
| 20260508211616 | 75 | 158 | 1.0 | 2.0 | 0.00 | 0.00 | 0.00 | 62 | 1013.7 |
| 20260508210656 | 76 | 0.0 | 1.0 | 0.00 | 0.00 | 0.00 | 59 | 1013.8 | |
| 20260508205658 | 77 | 23 | 1.0 | 2.0 | 0.00 | 0.00 | 0.00 | 51 | 1014.3 |
| 20260508205535 | 77 | 0.0 | 1.0 | 0.00 | 0.00 | 0.00 | 51 | 1014.3 | |
| 20260508203337 | 78 | 23 | 1.0 | 1.0 | 0.00 | 0.00 | 0.00 | 51 | 1014.6 |
| 20260508202317 | 78 | 0.0 | 0.0 | 0.00 | 0.00 | 0.00 | 50 | 1014.4 | |
| 20260508201317 | 78 | 0.0 | 1.0 | 0.00 | 0.00 | 0.00 | 49 | 1014.4 | |
| 20260508200317 | 78 | 0.0 | 1.0 | 0.00 | 0.00 | 0.00 | 50 | 1014.3 | |
| 20260508195317 | 78 | 68 | 1.0 | 2.0 | 0.00 | 0.00 | 0.00 | 50 | 1014.5 |
| 20260508194317 | 79 | 68 | 1.0 | 4.0 | 0.00 | 0.00 | 0.00 | 47 | 1014.2 |
| 20260508193317 | 78 | 68 | 1.0 | 1.0 | 0.00 | 0.00 | 0.00 | 53 | 1014.6 |
| 20260508192318 | 78 | 0.0 | 1.0 | 0.00 | 0.00 | 0.00 | 49 | 1014.6 | |
| 20260508191318 | 79 | 68 | 1.0 | 1.0 | 0.00 | 0.00 | 0.00 | 48 | 1015.0 |
| 20260508190317 | 78 | 158 | 1.0 | 2.0 | 0.00 | 0.00 | 0.00 | 48 | 1015.2 |
| 20260508185317 | 78 | 158 | 1.0 | 1.0 | 0.00 | 0.00 | 0.00 | 49 | 1015.2 |
| 20260508184318 | 78 | 23 | 2.0 | 3.0 | 0.00 | 0.00 | 0.00 | 49 | 1015.3 |
| 20260508183317 | 77 | 0.0 | 1.0 | 0.00 | 0.00 | 0.00 | 48 | 1015.2 | |
| 20260508182317 | 77 | 23 | 1.0 | 2.0 | 0.00 | 0.00 | 0.00 | 47 | 1015.4 |
| 20260508181338 | 77 | 0.0 | 1.0 | 0.00 | 0.00 | 0.00 | 50 | 1015.3 | |
| 20260508180318 | 78 | 135 | 2.0 | 4.0 | 0.00 | 0.00 | 0.00 | 45 | 1015.5 |
| 20260508175317 | 78 | 68 | 1.0 | 2.0 | 0.00 | 0.00 | 0.00 | 48 | 1015.5 |
| 20260508174317 | 77 | 0.0 | 1.0 | 0.00 | 0.00 | 0.00 | 49 | 1015.9 | |
| 20260508173318 | 77 | 0 | 1.0 | 2.0 | 0.00 | 0.00 | 0.00 | 48 | 1016.0 |
| 20260508172338 | 76 | 158 | 1.0 | 1.0 | 0.00 | 0.00 | 0.00 | 51 | 1015.9 |
| 20260508171318 | 75 | 158 | 2.0 | 3.0 | 0.00 | 0.00 | 0.00 | 50 | 1016.2 |
| 20260508170338 | 76 | 0.0 | 1.0 | 0.00 | 0.00 | 0.00 | 53 | 1016.5 | |
| 20260508165318 | 76 | 68 | 2.0 | 3.0 | 0.00 | 0.00 | 0.00 | 49 | 1016.6 |
| 20260508164318 | 74 | 45 | 1.0 | 2.0 | 0.00 | 0.00 | 0.00 | 53 | 1016.4 |
| 20260508163317 | 75 | 0 | 2.0 | 3.0 | 0.00 | 0.00 | 0.00 | 54 | 1016.7 |
| 20260508162317 | 74 | 158 | 2.0 | 4.0 | 0.00 | 0.00 | 0.00 | 51 | 1016.7 |
| 20260508161317 | 74 | 23 | 3.0 | 7.0 | 0.00 | 0.00 | 0.00 | 53 | 1016.7 |
| 20260508160317 | 73 | 180 | 1.0 | 2.0 | 0.00 | 0.00 | 0.00 | 56 | 1016.9 |
| 20260508155317 | 72 | 0.0 | 0.0 | 0.00 | 0.00 | 0.00 | 58 | 1017.3 | |
| 20260508154318 | 72 | 45 | 1.0 | 4.0 | 0.00 | 0.00 | 0.00 | 58 | 1017.2 |
| 20260508153318 | 70 | 225 | 1.0 | 2.0 | 0.00 | 0.00 | 0.00 | 59 | 1017.4 |
| 20260508152317 | 71 | 45 | 2.0 | 6.0 | 0.00 | 0.00 | 0.00 | 58 | 1017.6 |
| 20260508151317 | 71 | 270 | 4.0 | 7.0 | 0.00 | 0.00 | 0.00 | 56 | 1017.6 |
| 20260508150337 | 70 | 338 | 3.0 | 6.0 | 0.00 | 0.00 | 0.00 | 59 | 1017.6 |
| 20260508145337 | 69 | 270 | 2.0 | 5.0 | 0.00 | 0.00 | 0.00 | 61 | 1017.4 |
| 20260508144317 | 68 | 0 | 1.0 | 2.0 | 0.00 | 0.00 | 0.00 | 62 | 1017.3 |
| 20260508143317 | 68 | 23 | 1.0 | 1.0 | 0.00 | 0.00 | 0.00 | 64 | 1017.2 |
| 20260508142319 | 68 | 23 | 1.0 | 3.0 | 0.00 | 0.00 | 0.00 | 65 | 1017.3 |
| 20260508141337 | 68 | 0.0 | 1.0 | 0.00 | 0.00 | 0.00 | 65 | 1017.4 | |
| 20260508140317 | 66 | 68 | 1.0 | 3.0 | 0.00 | 0.00 | 0.00 | 68 | 1017.1 |
| 20260508135317 | 66 | 0 | 2.0 | 4.0 | 0.00 | 0.00 | 0.00 | 69 | 1017.2 |
| 20260508134318 | 65 | 248 | 1.0 | 2.0 | 0.00 | 0.00 | 0.00 | 71 | 1017.0 |
| 20260508133317 | 65 | 23 | 1.0 | 2.0 | 0.00 | 0.00 | 0.00 | 72 | 1016.9 |
| 20260508132337 | 64 | 0 | 1.0 | 2.0 | 0.00 | 0.00 | 0.00 | 72 | 1016.9 |
| 20260508131318 | 64 | 23 | 2.0 | 6.0 | 0.00 | 0.00 | 0.00 | 73 | 1016.8 |
| 20260508130317 | 65 | 0 | 1.0 | 4.0 | 0.00 | 0.00 | 0.00 | 75 | 1016.6 |
| 20260508125316 | 64 | 0 | 2.0 | 3.0 | 0.00 | 0.00 | 0.00 | 78 | 1016.5 |
| 20260508124316 | 64 | 0.0 | 1.0 | 0.00 | 0.01 | 0.00 | 80 | 1016.2 | |
| 20260508123316 | 63 | 23 | 1.0 | 2.0 | 0.00 | 0.01 | 0.00 | 80 | 1016.2 |
| 20260508122316 | 63 | 0.0 | 0.0 | 0.00 | 0.01 | 0.00 | 81 | 1016.0 | |
| 20260508121316 | 63 | 0.0 | 0.0 | 0.00 | 0.01 | 0.00 | 81 | 1016.2 | |
| 20260508120317 | 63 | 23 | 1.0 | 2.0 | 0.00 | 0.01 | 0.00 | 81 | 1015.9 |
| 20260508115317 | 62 | 0.0 | 0.0 | 0.00 | 0.01 | 0.00 | 82 | 1015.8 | |
| 20260508114317 | 62 | 0.0 | 1.0 | 0.00 | 0.01 | 0.00 | 82 | 1015.5 | |
| 20260508113317 | 62 | 0.0 | 0.0 | 0.00 | 0.01 | 0.00 | 83 | 1015.6 | |
| 20260508112337 | 62 | 0.0 | 2.0 | 0.00 | 0.02 | 0.00 | 84 | 1015.2 | |
| 20260508111316 | 62 | 0.0 | 0.0 | 0.00 | 0.04 | 0.00 | 86 | 1015.1 | |
| 20260508110336 | 62 | 0.0 | 0.0 | 0.00 | 0.06 | 0.00 | 86 | 1015.0 | |
| 20260508105417 | 62 | 45 | 1.0 | 1.0 | 0.00 | 0.08 | 0.00 | 87 | 1014.7 |
| 20260508104316 | 62 | 0.0 | 0.0 | 0.00 | 0.11 | 0.00 | 87 | 1014.3 | |
| 20260508103317 | 62 | 0.0 | 0.0 | 0.00 | 0.14 | 0.00 | 86 | 1014.3 | |
| 20260508102316 | 62 | 0.0 | 0.0 | 0.00 | 0.16 | 0.00 | 85 | 1014.2 | |
| 20260508101316 | 63 | 0.0 | 0.0 | 0.00 | 0.16 | 0.00 | 84 | 1014.3 | |
| 20260508100336 | 63 | 0.0 | 1.0 | 0.00 | 0.20 | 0.00 | 85 | 1014.1 | |
| 20260508095316 | 63 | 0.0 | 0.0 | 0.00 | 0.24 | 0.00 | 84 | 1013.8 | |
| 20260508094337 | 64 | 0.0 | 0.0 | 0.00 | 0.27 | 0.00 | 84 | 1013.7 | |
| 20260508093317 | 64 | 0.0 | 0.0 | 0.00 | 0.29 | 0.00 | 83 | 1013.6 | |
| 20260508092316 | 64 | 0.0 | 0.0 | 0.00 | 0.30 | 0.00 | 83 | 1013.4 | |
| 20260508091317 | 65 | 0.0 | 0.0 | 0.00 | 0.30 | 0.00 | 81 | 1013.1 | |
| 20260508090316 | 65 | 0.0 | 0.0 | 0.00 | 0.30 | 0.00 | 82 | 1013.1 | |
| 20260508085316 | 65 | 0.0 | 0.0 | 0.00 | 0.30 | 0.00 | 82 | 1012.9 | |
| 20260508084337 | 65 | 0.0 | 0.0 | 0.00 | 0.30 | 0.00 | 83 | 1013.0 | |
| 20260508083316 | 65 | 0.0 | 0.0 | 0.00 | 0.30 | 0.00 | 84 | 1013.1 | |
| 20260508082316 | 65 | 0.0 | 0.0 | 0.00 | 0.30 | 0.00 | 83 | 1013.0 | |
| 20260508081316 | 65 | 0.0 | 0.0 | 0.00 | 0.30 | 0.00 | 82 | 1013.3 | |
| 20260508080316 | 66 | 0.0 | 0.0 | 0.00 | 0.30 | 0.00 | 82 | 1013.3 | |
| 20260508075316 | 66 | 0.0 | 0.0 | 0.00 | 0.30 | 0.00 | 81 | 1013.2 | |
| 20260508074317 | 66 | 0.0 | 0.0 | 0.00 | 0.30 | 0.00 | 82 | 1013.0 | |
| 20260508073316 | 66 | 0.0 | 0.0 | 0.00 | 0.30 | 0.00 | 82 | 1013.2 | |
| 20260508072316 | 67 | 0.0 | 0.0 | 0.00 | 0.30 | 0.00 | 82 | 1013.2 | |
| 20260508071316 | 67 | 0.0 | 0.0 | 0.00 | 0.30 | 0.00 | 82 | 1013.2 | |
| 20260508070316 | 67 | 0.0 | 0.0 | 0.00 | 0.30 | 0.00 | 81 | 1013.4 | |
| 20260508065316 | 68 | 0.0 | 0.0 | 0.00 | 0.30 | 0.00 | 79 | 1013.4 | |
| 20260508064316 | 68 | 0.0 | 2.0 | 0.00 | 0.30 | 0.00 | 81 | 1013.4 | |
| 20260508063316 | 68 | 0.0 | 0.0 | 0.00 | 0.30 | 0.00 | 81 | 1013.6 | |
| 20260508062316 | 68 | 0.0 | 0.0 | 0.00 | 0.30 | 0.00 | 83 | 1013.5 | |
| 20260508061316 | 68 | 0.0 | 1.0 | 0.00 | 0.30 | 0.00 | 82 | 1013.6 | |
| 20260508060316 | 68 | 0.0 | 1.0 | 0.00 | 0.30 | 0.00 | 84 | 1013.4 | |
| 20260508055317 | 69 | 0.0 | 0.0 | 0.00 | 0.30 | 0.00 | 85 | 1013.3 | |
| 20260508054316 | 69 | 0.0 | 0.0 | 0.00 | 0.30 | 0.00 | 87 | 1013.3 | |
| 20260508053317 | 70 | 0.0 | 0.0 | 0.00 | 0.30 | 0.00 | 87 | 1013.3 | |
| 20260508052316 | 70 | 0.0 | 0.0 | 0.00 | 0.30 | 0.00 | 87 | 1013.3 | |
| 20260508051317 | 70 | 0.0 | 0.0 | 0.00 | 0.30 | 0.00 | 87 | 1013.3 | |
| 20260508050316 | 71 | 0.0 | 0.0 | 0.00 | 0.30 | 0.00 | 87 | 1013.1 | |
| 20260508045316 | 71 | 0 | 1.0 | 2.0 | 0.00 | 0.30 | 0.00 | 90 | 1013.2 |
| 20260508044316 | 71 | 23 | 1.0 | 2.0 | 0.00 | 0.30 | 0.00 | 92 | 1013.0 |
| 20260508043317 | 71 | 0.0 | 0.0 | 0.00 | 0.30 | 0.00 | 94 | 1012.7 | |
| 20260508042317 | 70 | 0.0 | 1.0 | 0.00 | 0.30 | 0.00 | 95 | 1012.9 | |
| 20260508041318 | 70 | 0.0 | 0.0 | 0.00 | 0.30 | 0.00 | 94 | 1012.6 | |
| 20260508040316 | 70 | 0.0 | 0.0 | 0.00 | 0.30 | 0.00 | 93 | 1012.5 | |
| 20260508035317 | 70 | 0.0 | 0.0 | 0.00 | 0.30 | 0.30 | 93 | 1012.5 | |
| 20260508034357 | 71 | 0.0 | 0.0 | 0.00 | 0.30 | 0.30 | 93 | 1012.6 | |
| 20260508033317 | 71 | 0.0 | 0.0 | 0.00 | 0.30 | 0.30 | 93 | 1012.6 | |
| 20260508032317 | 71 | 0.0 | 0.0 | 0.00 | 0.30 | 0.30 | 92 | 1012.5 | |
| 20260508031317 | 71 | 0.0 | 1.0 | 0.00 | 0.30 | 0.30 | 92 | 1012.4 | |
| 20260508030317 | 72 | 0.0 | 0.0 | 0.00 | 0.30 | 0.30 | 92 | 1012.2 | |
| 20260508025317 | 72 | 0.0 | 1.0 | 0.00 | 0.30 | 0.30 | 91 | 1012.0 | |
| 20260508024317 | 72 | 0.0 | 1.0 | 0.00 | 0.30 | 0.30 | 91 | 1012.0 |